Weather History for Grafton, ND

Change the Weather History Date:

Thursday, January 3, 2013

  Actual Average Record
Temperature  
Mean Temperature 14 °F -  
Max Temperature 26 °F 12 °F 41 °F (1964)
Min Temperature 1 °F -3 °F -29 °F (1982)
Degree Days  
Heating Degree Days 52    
Moisture  
Dew Point 10 °F    
Average Humidity 77    
Maximum Humidity 93    
Minimum Humidity 64    
Precipitation  
Precipitation 0.00 in - - ()
Sea Level Pressure  
Sea Level Pressure 30.05 in    
Wind  
Wind Speed 10 mph (SW)    
Max Wind Speed 18 mph    
Max Gust Speed 28 mph    
Visibility 10 miles    
Events Snow    
Averages and records for this station are not official NWS values.
T = Trace of Precipitation, MM = Missing Value Source: NWS Daily Summary

Daily Weather History Graph

Daily Weather History Graph

Search for Another Location

Airport:

Trip Planner

Search our weather history database for the weather conditions in past years. The results will help you decide how hot, cold, wet, or windy it might be!

Date:

Astronomy

Jan. 03, 2013 Rise Set
Actual Time 8:20 AM CST 4:47 PM CST
Civil Twilight 7:44 AM CST 5:24 PM CST
Nautical Twilight 7:04 AM CST 6:03 PM CST
Astronomical Twilight 6:26 AM CST 6:41 PM CST
Moon 11:59 PM CST (1/3) 11:01 AM CST (1/3)
Length of Visible Light 9h 39m
Length of Day
8h 26m
Waning Gibbous, 65% of the Moon is Illuminated
Jan 3
Waning Gibbous
Jan 4
Last Quarter
Jan 11
New
Jan 18
First Quarter
Jan 26
Full

Hourly Weather History & Observations

Time (CST) Temp. Windchill Dew Point Humidity Pressure Visibility Wind Dir Wind Speed Gust Speed Precip Events Conditions
12:15 AM 3.2 °F -10.3 °F -0.4 °F 85% 30.26 in 10.0 mi NW 8.1 mph - N/A   Clear
12:35 AM 3.2 °F -10.3 °F -0.4 °F 85% 30.26 in 10.0 mi NW 8.1 mph - N/A   Clear
12:55 AM 3.2 °F -9.1 °F -0.4 °F 85% 30.25 in 10.0 mi WNW 6.9 mph - N/A   Clear
1:15 AM 5.0 °F -8.1 °F -0.4 °F 78% 30.25 in 10.0 mi WNW 8.1 mph - N/A   Mostly Cloudy
1:35 AM 5.0 °F -8.1 °F -0.4 °F 78% 30.26 in 10.0 mi WNW 8.1 mph - N/A   Overcast
1:55 AM 5.0 °F -9.1 °F -0.4 °F 78% 30.27 in 10.0 mi WNW 9.2 mph - N/A   Overcast
2:15 AM 5.0 °F -9.1 °F -0.4 °F 78% 30.27 in 10.0 mi WNW 9.2 mph - N/A   Overcast
2:35 AM 6.8 °F -5.9 °F 1.4 °F 79% 30.27 in 10.0 mi NW 8.1 mph - N/A   Overcast
2:55 AM 6.8 °F -4.8 °F -0.4 °F 72% 30.27 in 10.0 mi WNW 6.9 mph - N/A   Overcast
3:15 AM 6.8 °F -3.5 °F 1.4 °F 79% 30.26 in 10.0 mi WNW 5.8 mph - N/A   Overcast
3:35 AM 6.8 °F -2.0 °F 1.4 °F 79% 30.25 in 10.0 mi West 4.6 mph - N/A   Overcast
3:55 AM 5.0 °F -5.6 °F 1.4 °F 85% 30.25 in 10.0 mi WSW 5.8 mph - N/A   Overcast
4:15 AM 6.8 °F -3.5 °F 1.4 °F 79% 30.25 in 10.0 mi West 5.8 mph - N/A   Overcast
4:35 AM 6.8 °F -2.0 °F 1.4 °F 79% 30.25 in 10.0 mi WSW 4.6 mph - N/A Snow Light Snow
4:55 AM 6.8 °F -3.5 °F 1.4 °F 79% 30.25 in 10.0 mi WSW 5.8 mph - N/A   Overcast
5:15 AM 5.0 °F -6.9 °F 1.4 °F 85% 30.23 in 10.0 mi SSW 6.9 mph - N/A   Overcast
5:35 AM 5.0 °F -4.1 °F 1.4 °F 85% 30.22 in 10.0 mi SSW 4.6 mph - N/A   Mostly Cloudy
5:55 AM 5.0 °F -2.1 °F -0.4 °F 78% 30.23 in 10.0 mi South 3.5 mph - N/A   Mostly Cloudy
6:15 AM 1.4 °F -11.3 °F -0.4 °F 92% 30.22 in 10.0 mi South 6.9 mph - N/A   Partly Cloudy
6:35 AM 1.4 °F -13.5 °F -0.4 °F 92% 30.20 in 10.0 mi SSW 9.2 mph - N/A   Clear
6:55 AM 1.4 °F -12.5 °F -0.4 °F 92% 30.20 in 10.0 mi South 8.1 mph - N/A   Clear
7:15 AM 3.2 °F -11.3 °F -0.4 °F 85% 30.20 in 10.0 mi South 9.2 mph - N/A   Clear
7:35 AM 5.0 °F -8.1 °F -0.4 °F 78% 30.20 in 10.0 mi SSW 8.1 mph - N/A   Mostly Cloudy
7:55 AM 5.0 °F -9.1 °F 1.4 °F 85% 30.18 in 10.0 mi South 9.2 mph - N/A   Mostly Cloudy
8:15 AM 5.0 °F -10.0 °F 1.4 °F 85% 30.18 in 10.0 mi South 10.4 mph - N/A   Partly Cloudy
8:35 AM 5.0 °F -10.0 °F 1.4 °F 85% 30.16 in 9.0 mi South 10.4 mph - N/A   Clear
8:55 AM 6.8 °F -10.0 °F 1.4 °F 79% 30.15 in 10.0 mi South 13.8 mph - N/A   Clear
9:15 AM 6.8 °F -9.3 °F 3.2 °F 85% 30.15 in 10.0 mi SSW 12.7 mph - N/A   Clear
9:35 AM 8.6 °F -5.5 °F 5.0 °F 85% 30.13 in 10.0 mi SSW 10.4 mph - N/A   Clear
9:55 AM 10.4 °F -4.8 °F 6.8 °F 85% 30.12 in 10.0 mi SSW 12.7 mph - N/A   Clear
10:15 AM 10.4 °F -5.4 °F 6.8 °F 85% 30.11 in 10.0 mi SSW 13.8 mph - N/A   Clear
10:35 AM 12.2 °F -1.8 °F 8.6 °F 85% 30.11 in 10.0 mi SSW 11.5 mph - N/A   Clear
10:55 AM 14.0 °F 0.5 °F 10.4 °F 86% 30.10 in 10.0 mi SSW 11.5 mph - N/A   Clear
11:15 AM 15.8 °F 2.1 °F 14.0 °F 93% 30.08 in 10.0 mi SSW 12.7 mph - N/A   Clear
11:35 AM 17.6 °F 3.7 °F 14.0 °F 86% 30.08 in 10.0 mi SW 13.8 mph - N/A   Clear
11:55 AM 19.4 °F 6.0 °F 15.8 °F 86% 30.07 in 10.0 mi SW 13.8 mph - N/A   Clear
12:15 PM 19.4 °F 6.0 °F 15.8 °F 86% 30.04 in 10.0 mi SW 13.8 mph - N/A   Clear
12:35 PM 23.0 °F 9.6 °F 15.8 °F 74% 30.02 in 10.0 mi SW 16.1 mph 21.9 mph N/A   Clear
12:55 PM 23.0 °F 9.2 °F 15.8 °F 74% 30.01 in 10.0 mi SW 17.3 mph 21.9 mph N/A   Clear
1:15 PM 23.0 °F 9.2 °F 17.6 °F 80% 30.00 in 10.0 mi SW 17.3 mph 25.3 mph N/A   Clear
1:35 PM 23.0 °F 9.6 °F 17.6 °F 80% 29.99 in 10.0 mi SSW 16.1 mph - N/A   Clear
1:55 PM 24.8 °F 12.4 °F 17.6 °F 74% 29.98 in 10.0 mi SW 15.0 mph 20.7 mph N/A   Clear
2:15 PM 24.8 °F 11.1 °F 17.6 °F 74% 29.97 in 10.0 mi SW 18.4 mph - N/A   Clear
2:35 PM 24.8 °F 12.4 °F 17.6 °F 74% 29.97 in 10.0 mi SW 15.0 mph - N/A   Clear
2:55 PM 24.8 °F 13.4 °F 17.6 °F 74% 29.96 in 10.0 mi SW 12.7 mph - N/A   Clear
3:15 PM 24.8 °F 11.9 °F 17.6 °F 74% 29.95 in 7.0 mi SSW 16.1 mph - N/A   Clear
3:35 PM 24.8 °F 12.4 °F 17.6 °F 74% 29.95 in 7.0 mi SSW 15.0 mph - N/A   Clear
3:55 PM 24.8 °F 12.4 °F 17.6 °F 74% 29.93 in 9.0 mi SSW 15.0 mph - N/A   Clear
4:15 PM 24.8 °F 12.9 °F 17.6 °F 74% 29.93 in 10.0 mi SSW 13.8 mph - N/A   Clear
4:35 PM 24.8 °F 11.5 °F 17.6 °F 74% 29.92 in 10.0 mi SSW 17.3 mph - N/A   Clear
4:55 PM 24.8 °F 11.5 °F 17.6 °F 74% 29.90 in 10.0 mi SSW 17.3 mph - N/A   Clear
5:15 PM 24.8 °F 13.4 °F 17.6 °F 74% 29.89 in 10.0 mi South 12.7 mph - N/A   Clear
5:35 PM 24.8 °F 13.4 °F 17.6 °F 74% 29.89 in 10.0 mi SW 12.7 mph - N/A   Clear
5:55 PM 24.8 °F 12.9 °F 15.8 °F 69% 29.88 in 10.0 mi SW 13.8 mph - N/A   Clear
6:15 PM 24.8 °F 12.4 °F 15.8 °F 69% 29.87 in 10.0 mi SSW 15.0 mph - N/A   Clear
6:35 PM 23.0 °F 10.1 °F 15.8 °F 74% 29.87 in 10.0 mi SW 15.0 mph - N/A   Clear
6:55 PM 24.8 °F 12.4 °F 15.8 °F 69% 29.87 in 10.0 mi SW 15.0 mph - N/A   Clear
7:15 PM 26.6 °F 17.5 °F 15.8 °F 64% 29.87 in 10.0 mi SW 9.2 mph - N/A   Clear
7:35 PM 24.8 °F 13.4 °F 14.0 °F 64% 29.86 in 10.0 mi WSW 12.7 mph - N/A   Clear
7:55 PM 26.6 °F 15.7 °F 15.8 °F 64% 29.86 in 10.0 mi WSW 12.7 mph - N/A   Clear
8:15 PM 24.8 °F 13.4 °F 15.8 °F 69% 29.85 in 10.0 mi West 12.7 mph - N/A   Clear
8:35 PM 26.6 °F 13.4 °F 15.8 °F 64% 29.85 in 10.0 mi West 18.4 mph 27.6 mph N/A   Clear
8:55 PM 26.6 °F 15.2 °F 15.8 °F 64% 29.85 in 10.0 mi West 13.8 mph - N/A   Clear
9:15 PM 24.8 °F 12.9 °F 15.8 °F 69% 29.85 in 10.0 mi West 13.8 mph - N/A   Clear
9:35 PM 24.8 °F 12.9 °F 15.8 °F 69% 29.85 in 10.0 mi West 13.8 mph - N/A   Clear
9:55 PM 24.8 °F 12.4 °F 15.8 °F 69% 29.85 in 10.0 mi West 15.0 mph - N/A   Clear
10:15 PM 24.8 °F 12.4 °F 15.8 °F 69% 29.86 in 10.0 mi WNW 15.0 mph - N/A   Clear
10:35 PM 24.8 °F 12.4 °F 15.8 °F 69% 29.86 in 10.0 mi WNW 15.0 mph - N/A   Clear
10:55 PM 24.8 °F 12.9 °F 15.8 °F 69% 29.87 in 10.0 mi West 13.8 mph - N/A   Clear
11:15 PM 24.8 °F 12.4 °F 15.8 °F 69% 29.87 in 10.0 mi WNW 15.0 mph - N/A   Clear
11:35 PM 24.8 °F 12.9 °F 15.8 °F 69% 29.88 in 10.0 mi West 13.8 mph - N/A   Clear
11:55 PM 24.8 °F 12.9 °F 15.8 °F 69% 29.90 in 10.0 mi WNW 13.8 mph - N/A   Clear